星链-31272 (STARLINK-31272 )

导读

STARLINK-31272是美国SpaceX公司星链(Starlink)星座的组网卫星,于2024年3月4日发射升空,归属星链低轨卫星互联网项目。星链旨在为全球偏远、网络欠覆盖区域提供低延迟高速宽带服务,该卫星入轨后进一步扩充了星链星座规模,助力全球无缝互联网络覆盖,星链项目计划最终部署超万颗低轨卫星,为全球用户提供普惠互联网接入服务。

Basic Information
目录编号:
59162
目录名称:
STARLINK-31272
国际标识:
2024-044L
轨道中心:
EARTH
卫星名称:
星链-31272
卫星全名:
星链-31272 (STARLINK-31272 )
卫星状态:
在轨 (已飞行921 天)
发射日期:
2024-03-04 UTC
国别 :
美国 (US)
星等 :
--
This satellite is enrolled in the Space Conjunction Data Service (SCDS) and the current flight risk assessment level is: No High Risk
Orbit Information
数据来源 国际轨道数据 AOE轨道数据
星历时间 2026-09-11T10:14:54+0800
18小时前
查看轨道信息
2026-09-09T23:00:00+0800
2天前
查看轨道信息
半长轴 6861.199km 6861.205km
偏心率 0.0001437 0.0001545
轨道倾角 43.001° 43.003°
近地点辐角 262.304° 243.926°
升交点赤经 139.711° 148.012°
平近点角 97.765° 309.997°
近地点 482.076km 482.007km
远地点 484.048km 484.129km
周期 94.267分钟 94.267分钟
每日圈数 15.275758 15.275739
Detailed Information
固有亮度:
5
最大亮度:
0.3
卫星平台:
Starlink v2.0 mini
覆盖范围:
全球
运营商:
太空探索技术公司
运营商所在国:
美国
制造商(研发单位):
太空探索技术公司
制造商所在国:
美国
使用方式:
暂无
Satellite Introduction
星链(Starlink)计划是由太空探索技术公司(SpaceX)提出的一个巨型低轨卫星互联网星座项目,计划在2019年至2024年间在太空搭建由约1.2万颗卫星组成的“星链”网络,其中1584颗将部署在地球上空550千米处的近地轨道,并从2020年开始工作。该卫星仍在工作。
2D Orbit Map
3D Orbit Map
Orbit Altitude Analysis Chart
Orbit Inclination Analysis Chart
Orbit Comprehensive Analysis Chart
View Comprehensive Chart
Miss Distance Evolution Trend with All Objects
Collision Probability Evolution Trend with All Objects